Theta_e
302 303 303 302 302 292 293 296 293 296 296 296 292 293 290 291 287 284 289 293 293 296 300 303 305 305 308 313 315 316 317 318 318 318 319 321 323 325 327 328 329 331 332 333 333 333 334 335 335 337 338 340 341 343 344 344 345 346 347 348 349 350 350
300 302 304 302 304 298 293 292 295 296 299 298 294 286 287 287 282 284 288 290 289 294 291 303 304 304 306 309 312 315 317 317 317 318 319 320 321 324 326 328 329 330 332 333 333 334 334 334 335 336 338 340 342 343 343 343 345 345 346 347 348 349 350
300 301 301 298 301 300 299 295 298 298 287 289 288 289 285 283 282 282 284 288 291 292 293 299 302 304 305 307 310 313 314 316 317 318 319 320 321 322 323 325 327 328 330 331 333 333 334 335 336 337 338 339 341 342 343 344 344 345 346 347 349 350 350
298 299 299 293 296 299 301 297 296 297 293 291 288 290 285 288 282 284 282 287 290 294 296 298 303 305 307 307 309 311 314 316 317 319 320 320 321 321 322 324 325 327 329 331 332 333 333 334 335 336 337 338 339 341 343 343 344 346 346 347 349 349 350
297 293 295 296 297 295 296 294 293 293 296 294 295 292 292 288 284 282 283 283 287 292 298 302 303 305 308 308 309 311 314 316 318 319 320 321 322 322 322 323 324 326 328 330 332 333 334 334 335 336 336 337 338 340 342 343 343 344 345 346 347 349 350
291 291 298 301 300 300 298 296 294 294 292 290 287 286 289 290 288 283 282 286 289 291 301 304 303 305 307 309 310 311 313 315 317 319 320 322 322 323 324 324 324 325 327 329 331 333 334 334 334 335 336 337 338 339 341 342 343 343 344 345 347 348 350
292 296 300 303 304 302 301 299 297 297 292 290 288 283 287 289 289 291 288 285 292 297 302 304 305 305 306 308 310 311 312 314 316 318 320 321 323 323 324 325 325 325 326 328 330 331 332 333 334 334 336 337 338 339 340 342 343 343 344 345 347 348 349
296 297 297 298 299 300 298 299 299 296 294 295 293 293 289 290 287 289 288 288 291 297 302 304 305 305 304 305 307 311 312 313 314 316 318 320 321 323 325 326 326 326 326 327 329 330 332 333 334 334 335 337 338 339 340 342 342 343 345 345 346 347 348
290 293 294 294 296 298 295 295 298 299 298 297 296 294 290 291 289 291 287 287 290 298 306 307 306 305 305 306 305 308 310 311 313 315 316 318 320 322 322 324 326 327 326 326 327 329 331 332 333 334 335 336 337 338 340 341 342 344 345 346 346 347 347
283 283 284 285 288 292 293 295 297 299 298 296 294 292 290 289 290 291 289 289 287 293 298 303 304 305 304 303 304 308 308 310 311 313 315 317 318 320 322 323 325 326 327 328 328 329 330 332 333 334 335 336 337 338 340 341 342 344 345 346 347 347 347
286 289 290 293 298 293 292 295 296 296 298 299 297 295 291 290 287 290 293 292 292 297 300 300 302 302 303 304 302 304 308 309 310 311 314 316 317 320 321 323 324 327 328 328 328 329 329 331 332 334 335 336 337 338 339 341 343 344 345 346 347 347 347
295 295 294 297 298 294 295 295 295 296 297 298 296 294 293 293 289 290 293 292 294 294 296 297 299 301 301 301 301 301 301 304 308 311 313 322 317 318 320 322 324 325 327 328 329 329 330 330 332 334 335 336 337 338 338 340 342 343 345 346 346 347 347
294 295 295 297 296 296 297 297 296 295 296 296 296 296 295 296 295 293 295 293 294 295 296 298 299 302 303 303 304 303 304 304 307 309 310 311 314 317 317 321 323 325 326 327 329 330 330 331 331 333 334 336 337 338 339 340 341 343 345 346 346 346 347
292 294 295 297 295 295 295 296 296 297 297 296 297 298 297 296 297 298 297 295 296 297 299 299 300 301 303 302 304 309 309 307 308 310 310 311 313 315 317 319 322 324 326 327 329 330 331 331 332 332 334 335 336 337 338 340 341 343 345 346 346 346 346
290 293 296 296 295 294 294 296 296 296 297 298 298 298 298 298 297 297 295 295 296 299 299 303 304 305 302 306 310 308 308 307 309 309 309 310 312 314 317 320 321 324 325 327 328 330 331 332 332 333 334 335 337 338 339 340 341 343 345 345 346 346 346
287 292 293 294 295 295 294 294 295 295 295 294 296 296 298 297 295 296 296 294 295 298 300 301 302 301 303 303 303 305 308 309 313 313 311 311 311 312 314 318 321 323 324 325 326 328 330 332 333 334 335 336 337 337 339 340 341 343 344 345 345 346 347
284 291 293 292 293 293 292 294 297 297 297 297 296 297 300 301 300 297 295 296 300 301 303 301 302 302 301 301 301 304 306 306 308 312 314 314 313 313 315 318 321 322 324 325 327 328 330 332 334 335 336 336 337 338 339 341 343 343 344 345 346 346 347
285 290 291 293 289 284 289 298 299 300 298 297 296 296 296 298 300 301 302 302 302 302 301 301 302 303 303 302 305 304 308 310 312 311 313 316 318 318 319 318 320 323 325 326 327 329 332 334 335 337 338 337 339 340 341 342 342 343 344 345 346 347 348
284 289 290 288 283 287 297 299 302 308 302 299 299 299 298 298 299 300 299 300 301 302 303 303 305 305 316 319 325 326 327 318 317 317 317 317 320 321 322 321 321 323 326 327 328 329 330 333 335 337 338 339 340 341 342 342 343 343 344 345 346 347 348
289 287 285 281 284 293 297 299 305 312 304 305 299 297 300 300 299 300 299 300 301 302 301 302 304 318 323 325 325 328 330 329 327 326 326 328 330 328 328 325 323 324 325 327 328 329 333 335 336 337 337 339 340 341 342 342 342 343 344 345 346 347 348
283 284 284 286 293 293 295 300 305 307 304 305 302 294 296 299 303 300 300 300 300 301 301 302 312 321 321 320 323 328 331 329 330 330 329 330 331 333 334 334 330 327 327 329 330 335 334 335 336 337 338 340 341 341 341 342 343 343 344 344 345 346 348
290 284 282 284 283 283 289 303 309 312 312 312 310 303 299 303 308 305 302 300 301 303 305 310 319 318 316 313 318 324 330 332 330 331 330 332 333 334 335 336 337 337 332 332 334 333 334 335 337 339 340 340 341 341 341 342 342 342 343 343 345 346 347
288 286 282 281 282 286 294 303 308 311 313 313 312 300 296 301 309 313 304 301 302 304 307 315 315 312 308 307 315 320 328 330 331 329 330 331 332 333 334 334 336 336 336 334 336 336 334 335 336 339 340 340 340 340 341 342 342 342 342 343 344 346 347
289 287 284 283 288 289 300 306 309 311 313 314 303 291 291 304 315 317 311 304 303 305 312 317 314 311 305 307 318 325 329 330 330 329 329 330 330 331 333 335 337 337 339 339 337 336 335 336 338 340 341 341 341 340 341 341 341 341 342 344 345 346 348
290 291 287 289 292 299 307 308 311 313 314 304 294 290 296 312 314 319 319 312 308 308 314 315 312 313 316 319 325 329 329 328 329 330 331 331 331 331 333 334 337 336 336 338 338 338 338 339 340 341 341 341 341 341 342 341 341 342 344 346 347 348 348
287 289 287 288 291 297 309 310 311 312 306 293 291 302 312 313 315 322 324 320 315 313 315 315 321 324 327 328 328 327 327 327 328 329 330 330 331 332 334 335 335 336 335 335 337 337 337 339 341 342 342 340 341 342 342 341 343 345 346 346 346 346 347
294 294 290 288 284 295 312 310 309 311 302 300 308 310 313 315 321 323 323 323 322 323 323 326 326 325 325 326 326 326 326 327 327 327 328 328 328 329 331 331 334 335 333 332 333 334 337 338 339 341 343 341 342 342 342 344 347 349 349 347 347 347 346
290 292 290 288 296 306 312 310 303 307 310 313 313 312 311 319 321 320 321 323 325 326 325 324 324 324 323 323 325 325 325 326 328 328 329 329 330 331 332 332 333 334 334 334 334 336 337 338 339 339 340 341 341 341 341 344 346 348 350 348 348 347 346
298 294 299 306 309 311 311 311 310 312 314 314 313 313 313 313 314 317 320 323 325 325 325 324 323 323 324 323 324 324 325 327 328 328 329 330 330 330 331 331 333 334 334 334 334 335 336 337 338 338 338 339 339 339 340 341 344 347 348 348 348 347 346
308 308 311 312 312 311 311 313 314 312 313 314 314 311 309 311 312 314 314 316 319 321 324 323 323 323 324 324 325 326 327 328 329 330 330 331 332 332 332 332 333 333 333 334 334 334 335 336 336 337 336 337 337 337 340 341 343 346 347 347 347 347 347
299 293 311 310 310 311 311 311 313 315 315 314 314 311 311 311 312 312 314 315 318 319 323 324 323 324 325 324 325 326 327 327 328 329 330 330 331 331 330 332 333 332 331 330 331 332 333 334 335 336 336 337 337 338 339 341 343 344 346 347 347 347 347
298 299 308 311 313 311 312 311 310 311 313 314 315 314 313 313 313 313 314 315 315 316 317 320 321 321 323 322 322 323 324 325 327 328 329 330 331 332 332 333 333 332 331 329 330 331 332 333 335 336 336 336 337 337 339 340 341 341 342 343 345 347 348
303 310 310 312 312 311 311 312 312 313 314 314 315 316 314 313 312 313 315 315 314 315 314 317 319 319 320 322 323 323 324 324 325 326 327 329 330 332 332 333 333 332 332 331 330 331 331 333 335 335 336 337 337 337 338 339 340 340 339 338 340 342 344
295 300 304 310 301 301 308 311 312 313 316 316 315 315 315 314 312 313 314 314 315 315 314 314 316 318 319 321 322 322 322 323 324 326 327 328 329 330 332 334 334 334 334 333 331 330 330 332 334 335 336 336 336 338 337 338 338 338 338 338 339 339 338
297 306 310 310 309 309 310 312 313 314 316 316 314 313 314 314 314 314 314 313 313 314 315 315 315 314 315 317 320 321 321 323 324 326 327 328 329 330 333 333 333 334 334 333 333 332 331 332 334 335 335 336 336 336 337 336 336 335 335 336 335 333 334
304 310 313 312 309 307 310 312 312 313 316 317 315 316 316 316 316 316 315 315 313 313 315 316 316 314 313 314 316 317 318 320 323 325 326 327 328 330 332 332 333 333 333 334 333 332 333 333 333 333 334 335 335 336 336 336 335 334 334 333 331 330 331
303 313 315 313 312 312 313 312 313 314 317 316 314 315 316 316 317 318 316 316 317 316 315 315 315 315 313 313 314 315 316 318 320 322 323 325 325 325 327 329 330 331 331 333 334 334 334 334 335 335 334 335 336 337 335 334 333 333 332 332 331 331 331
Wind_Speed
13 15 8 6 10 8 4 9 13 11 9 6 5 3 2 1 3 8 2 4 6 7 5 6 6 7 12 12 14 14 16 17 14 11 12 14 16 17 17 19 19 21 18 17 17 17 16 17 16 18 19 19 20 18 18 19 19 17 18 19 19 17 17
10 6 13 9 11 7 7 8 10 4 3 5 6 6 2 3 6 7 1 7 5 2 9 2 4 5 11 9 13 15 17 17 13 12 12 14 17 19 22 22 20 19 19 21 19 18 19 19 20 20 20 19 18 18 19 20 18 19 18 18 18 16 16
8 3 6 3 6 9 12 9 6 8 2 6 2 2 9 5 5 4 4 2 7 9 7 2 7 7 11 11 11 11 13 13 13 13 14 14 15 14 14 17 17 16 17 19 19 20 20 19 19 20 20 19 16 16 17 18 20 21 21 17 17 15 16
5 6 9 10 9 6 2 7 7 3 6 3 6 8 3 3 7 1 6 1 11 6 8 8 9 11 13 13 11 13 16 16 15 14 14 14 14 15 17 18 18 18 20 21 22 21 21 19 18 18 18 15 17 18 17 17 17 16 14 15 15 17 17
5 6 5 11 11 13 8 5 5 1 1 2 4 1 8 7 3 4 2 8 4 6 8 10 11 12 14 14 15 13 14 15 16 16 16 15 15 16 16 17 18 20 20 20 20 20 19 19 18 17 16 18 19 17 17 18 18 18 18 19 18 17 15
5 2 8 14 15 14 12 12 12 9 7 4 7 8 2 3 5 5 3 14 4 6 3 9 11 11 11 11 11 11 12 13 13 14 16 15 13 14 14 17 17 18 19 19 19 18 16 15 16 15 15 15 16 16 18 18 17 16 19 18 17 17 15
3 6 11 14 17 16 13 12 11 11 5 5 5 6 7 1 4 4 3 2 15 7 8 9 9 8 10 11 11 12 12 13 12 12 13 13 13 14 16 17 16 16 17 17 18 19 19 19 18 17 16 16 16 18 18 17 18 19 20 19 18 15 15
5 4 5 7 5 4 9 8 7 10 13 11 9 9 6 7 2 3 3 8 7 1 5 11 10 8 7 4 6 12 11 10 10 11 13 13 12 12 9 7 8 10 13 12 11 13 15 15 14 16 16 16 17 17 18 17 20 21 19 17 15 15 15
3 6 5 5 3 2 3 6 9 10 10 12 7 2 3 4 9 9 7 18 4 2 1 3 5 3 5 9 9 8 9 7 6 9 10 8 9 8 7 9 13 12 12 12 14 15 16 16 16 16 16 17 17 17 17 18 19 20 17 15 15 16 17
10 9 10 7 6 6 2 3 8 12 16 14 8 14 4 9 5 8 7 11 4 6 4 3 6 4 6 8 5 4 6 6 7 7 8 8 7 10 11 12 10 13 16 16 14 14 14 15 16 16 16 16 17 17 18 19 19 16 17 15 17 16 16
4 2 3 3 4 7 5 2 6 8 10 14 15 7 7 15 5 10 12 6 1 3 3 5 6 5 8 8 6 7 8 9 7 6 7 7 9 10 12 13 13 11 10 14 16 16 17 16 16 15 16 17 16 16 18 18 16 16 16 16 16 16 17
1 5 8 14 8 7 8 9 9 9 13 13 16 15 16 8 7 15 9 7 8 8 5 5 6 6 6 7 7 7 7 9 9 9 7 6 6 8 7 6 8 13 16 17 16 16 16 16 16 16 16 17 17 17 18 16 15 15 13 15 16 16 16
6 7 11 13 10 6 8 11 11 12 14 14 20 20 6 13 14 19 9 6 6 5 8 9 10 10 10 11 11 11 6 4 4 6 8 8 8 7 6 9 9 11 14 15 16 15 16 16 16 17 15 15 13 13 14 14 15 17 16 16 17 17 17
9 9 9 9 6 5 7 11 13 14 15 19 20 16 13 14 13 10 9 9 13 9 8 9 10 11 10 6 3 0 2 8 8 4 5 8 10 10 11 12 13 13 15 15 15 15 15 16 17 16 15 14 16 16 16 16 16 16 14 16 17 17 18
7 11 7 6 10 8 10 11 11 14 16 18 18 14 13 11 12 12 5 6 11 7 5 9 9 3 2 2 1 7 7 8 7 5 7 9 9 10 10 9 11 13 14 14 13 13 14 16 17 17 16 16 15 16 15 15 16 15 16 16 16 17 19
6 5 6 13 14 15 12 12 13 13 14 15 11 11 8 9 11 9 12 9 9 7 8 8 11 6 5 8 8 6 7 5 5 5 7 8 10 10 9 8 7 9 11 12 13 15 16 16 16 15 15 15 14 16 15 16 16 14 15 16 17 18 19
3 10 5 11 14 11 11 19 16 11 8 9 5 6 9 16 13 12 15 15 6 11 9 7 11 10 8 7 8 4 3 5 5 8 9 10 10 9 5 6 8 11 13 14 15 16 15 15 15 17 17 15 16 16 16 16 13 14 16 17 17 17 16
4 12 11 8 3 5 15 1 4 3 13 12 12 13 8 8 13 13 9 12 10 10 8 10 13 13 11 7 3 3 4 4 5 7 8 10 9 8 7 7 9 10 10 10 11 12 14 15 18 17 15 19 19 17 16 12 14 16 17 17 17 17 16
3 8 8 3 7 15 2 16 10 8 9 11 17 16 13 11 13 11 6 6 8 11 13 15 18 9 2 4 6 4 2 2 1 5 8 8 8 8 8 8 9 8 9 9 8 8 10 13 12 10 11 13 9 8 10 14 15 15 16 17 16 15 16
1 4 1 4 11 4 12 9 5 11 3 7 6 12 18 16 13 13 13 10 10 11 12 9 4 8 7 4 3 3 3 3 1 1 3 6 7 7 6 7 8 6 7 9 10 10 5 4 5 8 11 9 10 11 11 14 14 15 15 15 15 13 14
3 5 5 9 11 16 10 4 7 7 5 8 3 5 10 5 6 9 10 11 9 6 5 4 5 5 5 4 2 0 3 2 1 0 2 5 6 6 7 6 7 6 5 6 6 4 5 9 10 9 6 7 8 7 10 11 12 13 14 15 15 16 16
7 5 6 5 3 3 3 3 3 2 3 5 6 5 9 5 8 8 12 12 12 7 2 6 8 5 7 5 2 1 1 2 3 2 2 4 5 6 7 6 5 5 5 3 4 7 6 5 5 5 8 10 11 12 13 12 12 12 13 16 16 16 16
4 4 5 4 3 6 3 6 8 8 3 3 3 4 9 5 2 3 7 13 13 11 11 9 8 8 8 8 6 4 0 2 2 3 3 4 5 5 6 7 9 9 7 2 1 3 6 7 7 7 8 9 9 9 9 10 12 13 15 16 15 16 17
7 7 7 8 3 5 2 8 9 11 7 2 3 3 8 5 14 11 6 10 12 11 12 15 12 13 9 9 8 4 2 1 1 3 4 5 6 7 9 9 8 7 8 11 11 9 5 1 3 9 9 10 11 10 10 10 12 14 16 17 17 16 12
9 10 6 4 5 3 3 9 10 10 9 2 8 12 2 12 16 15 9 12 11 12 12 13 13 7 1 4 7 6 4 3 2 4 4 4 5 7 8 10 10 9 10 10 9 9 6 6 3 2 7 9 10 9 10 11 14 16 13 8 5 5 6
11 8 10 9 5 3 3 6 3 9 1 4 8 4 12 14 17 14 8 9 8 6 13 8 4 7 6 8 7 7 5 4 3 4 5 5 6 7 7 9 10 8 9 11 12 12 11 10 9 4 2 6 6 7 8 12 15 12 8 8 9 9 11
8 6 7 5 8 1 6 8 1 10 3 4 9 14 16 12 11 9 9 7 7 4 8 7 11 10 9 8 7 6 5 5 6 7 8 9 9 10 10 11 11 8 8 9 9 10 10 11 10 8 5 0 1 4 8 6 3 2 3 6 8 10 11
8 8 11 7 3 3 4 1 4 1 1 6 9 8 13 10 7 10 8 8 5 5 8 14 10 9 10 8 8 6 6 6 6 8 8 8 9 9 9 9 9 9 9 9 9 10 10 10 10 10 9 7 6 4 4 7 6 4 2 5 6 8 10
4 5 4 4 7 5 4 4 4 4 3 7 9 10 9 8 9 9 6 7 8 5 3 8 10 10 7 9 7 7 6 7 8 8 9 9 9 9 10 11 11 10 10 10 10 10 9 11 9 9 9 8 8 7 6 6 6 5 3 5 7 9 10
7 4 1 9 6 6 6 4 5 7 8 9 10 11 9 9 9 8 6 8 7 7 3 8 8 8 8 8 8 9 8 8 9 9 9 11 11 11 10 9 10 8 8 9 10 11 10 10 9 7 6 6 7 4 5 5 5 4 4 5 7 9 9
6 4 4 4 8 5 5 6 5 6 9 10 10 10 8 8 10 9 9 7 8 8 5 4 10 10 8 10 8 8 7 8 9 10 11 12 12 13 14 13 13 14 13 12 12 11 10 10 10 9 7 5 3 1 3 4 4 4 3 4 6 7 8
10 4 6 5 6 4 4 6 8 8 8 12 10 9 9 8 7 8 8 9 10 10 8 7 6 9 8 7 6 6 6 7 7 8 9 10 10 9 8 9 10 10 11 12 12 12 11 11 9 9 9 8 6 6 5 4 3 4 4 3 2 5 6
7 1 3 7 6 5 7 9 10 9 8 10 9 10 12 12 8 6 9 11 11 12 10 10 4 8 7 7 7 8 7 7 7 8 7 8 8 7 8 7 7 7 7 8 8 9 9 9 9 9 9 9 8 8 7 5 5 4 4 4 5 4 3
13 7 7 9 8 3 1 7 9 11 11 11 7 8 7 10 12 9 5 11 13 12 10 9 7 4 7 7 7 10 9 9 9 8 9 9 9 8 7 6 6 8 8 7 7 7 6 7 8 9 10 9 9 8 7 6 6 6 5 4 4 5 5
7 6 7 4 6 7 4 7 10 14 13 7 5 7 8 8 9 11 5 9 14 14 11 9 7 5 6 7 7 9 8 9 8 9 10 10 9 9 8 8 9 9 9 9 8 7 5 5 6 7 7 8 8 8 8 7 7 6 6 5 5 5 6
18 15 4 6 6 8 4 2 14 15 7 2 4 8 7 5 6 11 7 11 14 13 10 9 10 7 7 7 7 10 10 9 9 10 10 10 9 9 9 10 10 11 10 9 8 8 6 6 6 5 6 6 6 6 6 6 6 5 5 5 4 4 4
14 9 4 3 9 12 8 8 15 14 6 3 5 8 6 5 5 6 10 12 13 14 9 7 9 8 7 8 8 9 9 10 9 10 10 11 11 11 10 10 9 9 9 8 7 7 6 6 6 6 6 6 5 5 5 5 5 5 5 5 5 5 4
Wind_Direction
177 193 152 190 148 197 210 124 203 212 98 155 244 279 202 143 350 257 191 298 293 295 315 232 235 214 210 206 215 221 230 234 226 212 202 202 203 202 201 205 207 207 203 204 206 205 204 202 200 200 200 198 199 196 195 198 201 198 197 199 200 199 200
241 194 171 172 184 132 122 189 214 79 106 137 163 225 346 227 225 267 103 205 290 234 260 288 189 207 226 213 214 215 223 231 227 216 207 204 203 203 204 206 206 203 200 202 204 206 203 201 200 201 202 199 199 197 197 198 197 198 200 199 200 199 199
194 112 137 170 215 157 174 202 156 153 215 195 279 140 238 224 246 278 277 240 239 189 236 324 187 209 230 221 217 219 228 232 229 224 216 212 210 205 204 209 206 203 203 205 205 206 206 205 202 202 201 197 196 198 201 199 198 200 198 196 198 199 199
164 150 151 202 203 265 263 82 171 176 124 175 154 197 161 141 249 190 291 269 248 195 209 186 213 206 215 219 217 212 216 220 219 222 218 212 206 203 204 205 204 203 204 204 203 203 203 203 203 204 200 195 197 198 197 199 203 203 198 198 198 201 201
115 180 194 199 189 191 208 188 191 196 217 237 134 162 188 197 193 208 234 275 271 247 205 176 205 211 214 207 211 216 218 217 216 218 217 213 208 206 206 204 203 203 205 205 205 205 205 203 203 201 192 193 198 195 197 199 198 196 197 200 198 203 198
206 245 201 196 198 193 195 189 206 194 159 147 164 248 352 158 185 227 146 254 258 265 181 190 192 215 216 218 212 221 226 226 219 219 221 216 213 212 208 208 205 204 206 204 205 205 204 201 202 197 194 196 196 194 198 198 198 198 201 200 201 201 198
206 210 212 209 202 193 196 176 208 183 172 120 161 213 229 148 246 106 174 270 262 220 187 202 199 208 216 214 199 216 223 224 222 223 229 225 217 211 209 208 207 204 204 204 201 200 199 199 199 196 193 193 194 197 197 195 195 201 200 201 199 196 198
283 292 318 320 330 230 214 220 191 167 196 195 203 213 181 178 224 208 240 245 264 263 191 200 206 205 230 254 206 211 223 225 221 216 225 226 224 226 219 213 213 209 209 206 201 202 203 202 199 195 194 195 195 197 196 194 199 202 200 199 195 195 199
231 271 333 315 344 145 217 200 210 199 193 197 202 107 98 200 202 182 151 243 229 276 273 245 280 266 249 239 234 217 229 239 225 221 229 229 227 228 205 201 202 196 195 196 200 202 201 200 198 195 195 196 195 197 194 196 203 201 198 194 193 196 198
207 209 213 220 231 237 244 239 202 205 197 194 178 223 163 222 216 178 209 247 253 275 319 245 236 248 272 271 264 272 233 242 243 237 230 219 210 214 210 211 200 194 197 198 198 199 200 199 198 196 196 197 197 196 197 198 200 193 195 191 195 194 195
259 326 285 233 8 317 255 223 186 217 211 200 204 203 196 219 174 206 231 204 219 250 228 222 230 217 229 247 248 231 238 245 257 265 259 229 212 212 212 209 206 199 193 200 201 197 197 196 196 197 196 197 198 197 200 200 198 193 192 191 193 193 194
311 313 297 290 290 269 276 286 246 201 199 205 209 205 224 121 135 241 225 193 193 232 245 236 241 246 256 263 262 262 257 235 223 238 253 265 251 241 230 223 202 194 200 203 201 198 195 194 195 198 198 198 196 195 198 196 193 191 189 190 192 194 194
319 287 279 284 290 238 251 256 256 241 215 200 212 220 191 165 208 232 223 175 189 241 228 225 219 204 209 218 226 230 245 292 253 225 235 242 244 248 229 220 211 206 203 204 203 198 196 193 192 196 196 199 198 200 199 193 190 193 188 187 191 193 194
314 298 286 286 272 295 275 256 254 248 237 225 216 215 206 200 227 233 223 175 201 206 231 223 229 221 207 210 201 315 271 254 258 259 251 243 239 229 222 214 205 205 208 206 205 199 195 191 193 192 194 195 195 196 195 190 192 193 181 190 191 193 197
312 300 299 291 318 303 288 282 264 248 242 240 232 220 215 206 239 239 224 180 226 246 233 241 247 262 28 22 171 205 227 249 254 251 248 251 250 245 237 224 211 209 209 206 203 200 199 195 192 191 193 195 194 197 194 191 194 188 184 189 191 193 201
313 293 334 323 319 312 278 263 259 250 241 243 237 229 216 193 213 220 240 235 234 261 266 268 268 284 261 235 236 237 246 266 287 259 254 249 246 246 244 240 229 221 215 206 198 199 200 198 193 190 192 192 189 196 192 193 193 184 187 191 194 199 203
250 279 311 322 314 320 298 259 253 239 254 249 261 250 208 214 193 208 218 231 207 213 212 221 263 251 247 247 245 248 300 269 247 255 251 247 249 249 238 236 226 219 215 211 205 202 195 190 191 197 192 184 192 194 190 195 179 180 190 194 198 202 200
271 296 315 309 321 257 241 72 345 239 223 214 226 240 223 224 197 225 203 215 204 204 184 193 236 240 233 214 226 189 188 250 287 280 276 279 280 281 266 242 233 230 224 218 211 202 196 196 197 198 188 191 195 190 189 174 176 187 189 196 197 200 196
280 293 320 333 228 239 10 330 351 335 277 218 211 232 225 212 225 240 234 228 214 209 198 199 219 220 122 121 117 131 148 165 214 277 301 301 301 291 288 270 248 231 217 214 208 202 204 201 196 178 190 202 189 171 169 177 187 186 193 196 198 198 196
251 338 282 233 236 263 319 314 356 341 27 17 342 259 235 221 206 206 224 223 215 213 215 220 189 143 155 120 106 102 119 127 153 283 305 308 309 309 307 291 273 237 209 207 203 205 193 176 187 193 198 183 173 185 179 185 185 190 191 194 198 195 198
174 213 230 246 306 318 329 4 356 22 355 330 15 261 277 252 202 187 213 227 240 243 235 172 151 139 113 84 56 148 61 61 87 241 277 295 299 311 314 299 289 282 254 195 195 177 171 175 171 185 158 155 174 166 182 190 187 193 191 195 198 197 199
175 216 280 311 338 272 273 169 282 239 264 250 196 155 282 249 232 213 196 210 223 214 147 153 154 138 117 157 204 243 356 24 21 344 307 296 303 331 329 324 339 344 332 297 187 151 154 168 168 143 161 168 172 181 187 186 186 192 195 202 201 198 200
162 191 224 221 218 243 200 306 312 312 279 214 204 132 262 307 296 261 212 207 203 181 163 160 143 139 164 211 222 236 295 330 19 24 352 338 328 336 346 348 351 357 348 350 165 136 146 161 175 160 155 160 170 187 188 188 191 194 201 205 200 200 202
184 185 212 238 208 255 305 314 325 316 320 271 149 206 260 328 341 326 281 228 199 188 169 157 168 162 182 202 216 166 111 301 16 54 26 0 352 3 6 4 3 9 27 57 50 47 44 315 206 165 158 162 176 181 187 186 196 206 208 206 202 204 198
201 202 245 281 289 286 342 328 322 326 327 87 169 218 271 324 320 309 291 267 229 177 164 163 175 226 202 121 110 100 76 81 28 38 46 32 19 20 19 20 9 21 30 47 54 45 22 9 349 206 163 162 178 180 176 184 206 214 215 211 205 199 182
212 201 216 233 252 241 321 301 16 343 31 209 224 306 312 299 303 300 302 293 258 203 169 172 131 133 123 99 91 87 74 66 36 26 32 45 57 42 42 34 32 36 32 31 32 27 20 16 16 14 143 172 175 176 183 203 212 211 194 186 184 181 187
221 199 203 214 242 283 346 296 16 32 71 285 307 307 304 300 288 320 331 333 301 204 114 109 127 126 113 107 98 88 72 59 39 29 26 33 32 27 24 27 29 41 50 46 39 30 21 23 24 22 30 80 192 185 209 235 317 328 214 196 191 191 194
195 190 205 209 179 177 316 11 106 339 135 282 306 311 300 319 342 346 333 334 347 319 130 134 126 121 116 107 113 98 77 68 61 52 46 44 42 41 39 38 32 41 55 56 56 48 37 29 28 28 38 45 35 27 355 354 342 341 207 206 198 198 202
251 220 183 141 136 128 109 91 136 140 35 5 343 328 309 325 353 342 344 1 2 349 86 103 114 111 104 106 102 100 84 72 63 55 47 42 41 42 38 35 32 35 41 48 53 53 45 40 37 31 30 40 38 30 345 337 331 330 269 200 199 208 211
244 262 69 132 129 131 127 136 130 104 62 35 4 344 336 357 351 345 3 358 0 345 2 108 96 98 110 103 94 85 77 69 62 53 43 33 28 32 37 42 40 52 55 48 42 42 46 44 45 47 45 46 46 352 322 322 318 314 282 218 206 213 215
273 224 177 127 139 150 152 140 122 80 73 58 13 340 339 354 352 352 4 16 23 356 350 85 108 103 95 94 83 76 68 61 54 51 50 46 38 32 27 13 13 19 24 30 31 33 38 30 30 31 36 43 54 347 324 325 330 329 296 249 237 223 219
248 249 160 147 142 144 133 98 70 55 46 56 30 338 337 342 354 2 11 32 33 12 9 5 73 84 81 81 81 76 69 66 61 58 58 59 58 50 43 31 32 29 29 25 18 19 22 18 21 21 20 17 7 2 355 360 352 352 359 0 293 273 266
281 281 154 182 169 76 67 81 82 76 57 57 44 2 347 335 333 20 29 43 48 31 4 336 13 91 100 104 99 95 83 77 72 70 72 71 69 68 62 56 54 59 51 40 29 22 16 4 5 10 9 7 1 3 357 357 6 31 27 355 340 323 302
249 213 194 176 169 196 85 80 91 79 58 51 34 45 6 342 325 311 72 74 69 57 22 347 308 88 100 93 93 87 83 81 83 80 77 73 71 68 66 67 64 63 60 60 50 35 11 359 2 4 3 359 356 355 354 352 3 16 5 3 2 358 360
241 252 203 215 136 115 129 154 99 69 53 36 38 58 49 11 330 304 329 71 68 60 37 352 332 358 44 55 67 79 74 73 72 75 72 69 65 63 59 60 54 59 60 60 62 57 34 13 14 11 6 359 351 350 350 349 353 3 0 7 22 20 14
275 274 209 189 141 132 147 149 96 82 67 358 54 50 51 30 348 323 350 45 62 60 37 356 338 338 31 30 47 68 60 54 59 61 59 57 53 53 52 56 53 49 50 49 49 48 38 34 30 16 6 354 349 341 348 348 354 3 20 26 25 19 24
252 265 247 185 118 114 116 113 103 114 151 156 89 67 36 33 27 349 10 33 47 53 48 351 331 347 16 31 32 52 59 53 45 55 55 56 53 50 47 44 41 47 43 43 42 42 39 38 41 29 22 12 357 357 353 4 3 25 22 23 16 5 360